| time (UTC) | temp F | wind direction | speed MPH | gust MPH | rain 1hr in | rain 24hr in | rain mn in | humidity % | barometer mb |
| 20260831225509 | 57 | 91 | 0.0 | 1.0 | 0.00 | 0.00 | 0.00 | 83 | 1024.9 |
| 20260831225010 | 58 | 91 | 0.0 | 1.0 | 0.00 | 0.00 | 0.00 | 83 | 1024.9 |
| 20260831224534 | 58 | 84 | 0.0 | 1.0 | 0.00 | 0.00 | 0.00 | 83 | 1024.9 |
| 20260831224016 | 58 | 84 | 0.0 | 1.0 | 0.00 | 0.00 | 0.00 | 83 | 1024.9 |
| 20260831223514 | 57 | 84 | 0.0 | 1.0 | 0.00 | 0.00 | 0.00 | 83 | 1024.9 |
| 20260831223027 | 58 | 84 | 0.0 | 1.0 | 0.00 | 0.00 | 0.00 | 83 | 1024.9 |
| 20260831222516 | 58 | 84 | 0.0 | 1.0 | 0.00 | 0.00 | 0.00 | 83 | 1024.9 |
| 20260831222018 | 58 | 115 | 0.0 | 1.0 | 0.00 | 0.00 | 0.00 | 83 | 1024.9 |
| 20260831221531 | 58 | 120 | 0.0 | 1.0 | 0.00 | 0.00 | 0.00 | 83 | 1025.0 |
| 20260831221017 | 58 | 113 | 0.0 | 1.0 | 0.00 | 0.00 | 0.00 | 83 | 1025.0 |
| 20260831220515 | 57 | 68 | 0.0 | 1.0 | 0.00 | 0.00 | 0.00 | 84 | 1024.9 |
| 20260831220032 | 58 | 138 | 0.0 | 0.0 | 0.00 | 0.00 | 0.00 | 83 | 1024.9 |
| 20260831215517 | 58 | 138 | 0.0 | 0.0 | 0.00 | 0.00 | 0.00 | 83 | 1024.9 |
| 20260831215008 | 58 | 138 | 0.0 | 0.0 | 0.00 | 0.00 | 0.00 | 83 | 1024.9 |
| 20260831214518 | 58 | 137 | 0.0 | 0.0 | 0.00 | 0.00 | 0.00 | 83 | 1024.9 |
| 20260831214011 | 58 | 137 | 0.0 | 0.0 | 0.00 | 0.00 | 0.00 | 84 | 1024.9 |
| 20260831213516 | 58 | 137 | 0.0 | 1.0 | 0.00 | 0.00 | 0.00 | 83 | 1024.9 |
| 20260831213023 | 58 | 137 | 0.0 | 1.0 | 0.00 | 0.00 | 0.00 | 83 | 1024.9 |
| 20260831212514 | 58 | 138 | 0.0 | 0.0 | 0.00 | 0.00 | 0.00 | 83 | 1025.0 |
| 20260831212016 | 58 | 138 | 0.0 | 0.0 | 0.00 | 0.00 | 0.00 | 83 | 1025.0 |
| 20260831211528 | 59 | 138 | 0.0 | 1.0 | 0.00 | 0.00 | 0.00 | 82 | 1025.0 |
| 20260831211015 | 59 | 139 | 0.0 | 1.0 | 0.00 | 0.00 | 0.00 | 82 | 1024.9 |
| 20260831210517 | 59 | 138 | 0.0 | 1.0 | 0.00 | 0.00 | 0.00 | 82 | 1024.9 |
| 20260831210032 | 59 | 138 | 0.0 | 1.0 | 0.00 | 0.00 | 0.00 | 82 | 1024.9 |
| 20260831205517 | 59 | 112 | 0.0 | 1.0 | 0.00 | 0.00 | 0.00 | 82 | 1024.9 |
| 20260831205022 | 59 | 40 | 0.0 | 1.0 | 0.00 | 0.00 | 0.00 | 82 | 1024.9 |
| 20260831204533 | 59 | 40 | 0.0 | 0.0 | 0.00 | 0.00 | 0.00 | 81 | 1024.9 |
| 20260831204016 | 60 | 41 | 0.0 | 0.0 | 0.00 | 0.00 | 0.00 | 80 | 1024.9 |
| 20260831203517 | 60 | 41 | 0.0 | 1.0 | 0.00 | 0.00 | 0.00 | 80 | 1024.8 |
| 20260831203020 | 60 | 40 | 0.0 | 1.0 | 0.00 | 0.00 | 0.00 | 79 | 1024.7 |
| 20260831202511 | 60 | 40 | 0.0 | 0.0 | 0.00 | 0.00 | 0.00 | 79 | 1024.8 |
| 20260831202012 | 60 | 40 | 0.0 | 1.0 | 0.00 | 0.00 | 0.00 | 79 | 1024.8 |
| 20260831201526 | 60 | 40 | 0.0 | 1.0 | 0.00 | 0.00 | 0.00 | 79 | 1024.8 |
| 20260831201016 | 60 | 323 | 0.0 | 0.0 | 0.00 | 0.00 | 0.00 | 80 | 1024.8 |
| 20260831200513 | 60 | 323 | 0.0 | 0.0 | 0.00 | 0.00 | 0.00 | 79 | 1024.8 |
| 20260831200031 | 60 | 323 | 0.0 | 0.0 | 0.00 | 0.00 | 0.00 | 79 | 1024.7 |
| 20260831195520 | 60 | 309 | 0.0 | 0.0 | 0.00 | 0.00 | 0.00 | 79 | 1024.6 |
| 20260831195017 | 60 | 309 | 0.0 | 0.0 | 0.00 | 0.00 | 0.00 | 78 | 1024.6 |
| 20260831194530 | 61 | 309 | 0.0 | 0.0 | 0.00 | 0.00 | 0.00 | 78 | 1024.6 |
| 20260831194016 | 61 | 309 | 0.0 | 0.0 | 0.00 | 0.00 | 0.00 | 77 | 1024.5 |
| 20260831193518 | 61 | 309 | 0.0 | 1.0 | 0.00 | 0.00 | 0.00 | 76 | 1024.5 |
| 20260831193032 | 62 | 309 | 0.0 | 1.0 | 0.00 | 0.00 | 0.00 | 76 | 1024.5 |
| 20260831192517 | 62 | 310 | 0.0 | 1.0 | 0.00 | 0.00 | 0.00 | 76 | 1024.4 |
| 20260831192016 | 62 | 310 | 0.0 | 1.0 | 0.00 | 0.00 | 0.00 | 76 | 1024.4 |
| 20260831191543 | 62 | 310 | 0.0 | 1.0 | 0.00 | 0.00 | 0.00 | 76 | 1024.3 |
| 20260831191013 | 62 | 304 | 0.0 | 0.0 | 0.00 | 0.00 | 0.00 | 76 | 1024.2 |
| 20260831190513 | 62 | 304 | 0.0 | 2.0 | 0.00 | 0.00 | 0.00 | 76 | 1024.2 |
| 20260831190025 | 62 | 303 | 0.0 | 2.0 | 0.00 | 0.00 | 0.00 | 76 | 1024.2 |
| 20260831185515 | 62 | 303 | 1.0 | 2.0 | 0.00 | 0.00 | 0.00 | 76 | 1024.1 |
| 20260831185003 | 63 | 298 | 0.0 | 1.0 | 0.00 | 0.00 | 0.00 | 75 | 1024.1 |
| 20260831184503 | 63 | 298 | 0.0 | 2.0 | 0.00 | 0.00 | 0.00 | 75 | 1024.1 |
| 20260831184006 | 63 | 300 | 1.0 | 2.0 | 0.00 | 0.00 | 0.00 | 75 | 1024.0 |
| 20260831183504 | 63 | 302 | 1.0 | 2.0 | 0.00 | 0.00 | 0.00 | 75 | 1024.1 |
| 20260831183011 | 63 | 286 | 1.0 | 2.0 | 0.00 | 0.00 | 0.00 | 75 | 1024.0 |
| 20260831182513 | 63 | 289 | 1.0 | 2.0 | 0.00 | 0.00 | 0.00 | 75 | 1024.0 |
| 20260831182010 | 63 | 303 | 0.0 | 2.0 | 0.00 | 0.00 | 0.00 | 74 | 1024.0 |
| 20260831181516 | 63 | 305 | 0.0 | 1.0 | 0.00 | 0.00 | 0.00 | 74 | 1024.0 |
| 20260831181009 | 64 | 295 | 0.0 | 1.0 | 0.00 | 0.00 | 0.00 | 74 | 1023.9 |
| 20260831180509 | 64 | 311 | 0.0 | 2.0 | 0.00 | 0.00 | 0.00 | 73 | 1023.9 |
| 20260831180019 | 64 | 310 | 0.0 | 2.0 | 0.00 | 0.00 | 0.00 | 72 | 1023.9 |
| 20260831175512 | 65 | 317 | 1.0 | 2.0 | 0.00 | 0.00 | 0.00 | 71 | 1023.9 |
| 20260831175014 | 65 | 302 | 0.0 | 3.0 | 0.00 | 0.00 | 0.00 | 71 | 1023.8 |
| 20260831174527 | 65 | 292 | 1.0 | 3.0 | 0.00 | 0.00 | 0.00 | 70 | 1023.8 |
| 20260831174019 | 66 | 293 | 1.0 | 3.0 | 0.00 | 0.00 | 0.00 | 69 | 1023.8 |
| 20260831173516 | 67 | 306 | 1.0 | 3.0 | 0.00 | 0.00 | 0.00 | 69 | 1023.9 |
| 20260831173008 | 67 | 303 | 1.0 | 3.0 | 0.00 | 0.00 | 0.00 | 68 | 1023.9 |
| 20260831172504 | 67 | 308 | 2.0 | 3.0 | 0.00 | 0.00 | 0.00 | 67 | 1023.8 |
| 20260831172009 | 67 | 317 | 2.0 | 4.0 | 0.00 | 0.00 | 0.00 | 67 | 1023.9 |
| 20260831171515 | 67 | 293 | 1.0 | 4.0 | 0.00 | 0.00 | 0.00 | 68 | 1023.9 |
| 20260831171009 | 67 | 306 | 1.0 | 4.0 | 0.00 | 0.00 | 0.00 | 68 | 1023.9 |
| 20260831170508 | 66 | 242 | 1.0 | 3.0 | 0.00 | 0.00 | 0.00 | 69 | 1024.0 |
| 20260831170024 | 67 | 291 | 2.0 | 3.0 | 0.00 | 0.00 | 0.00 | 68 | 1024.0 |
| 20260831165511 | 67 | 328 | 0.0 | 2.0 | 0.00 | 0.00 | 0.00 | 68 | 1024.0 |
| 20260831165010 | 67 | 333 | 0.0 | 1.0 | 0.00 | 0.00 | 0.00 | 70 | 1023.9 |
| 20260831164536 | 67 | 58 | 0.0 | 1.0 | 0.00 | 0.00 | 0.00 | 70 | 1024.0 |
| 20260831164013 | 67 | 58 | 0.0 | 3.0 | 0.00 | 0.00 | 0.00 | 70 | 1024.0 |
| 20260831163512 | 66 | 271 | 1.0 | 3.0 | 0.00 | 0.00 | 0.00 | 70 | 1024.0 |
| 20260831163031 | 66 | 304 | 0.0 | 3.0 | 0.00 | 0.00 | 0.00 | 70 | 1024.0 |
| 20260831162514 | 66 | 269 | 1.0 | 4.0 | 0.00 | 0.00 | 0.00 | 69 | 1024.0 |
| 20260831162016 | 66 | 326 | 1.0 | 5.0 | 0.00 | 0.00 | 0.00 | 69 | 1024.0 |
| 20260831161508 | 67 | 274 | 1.0 | 5.0 | 0.00 | 0.00 | 0.00 | 68 | 1024.0 |
| 20260831161003 | 67 | 302 | 2.0 | 5.0 | 0.00 | 0.00 | 0.00 | 65 | 1023.9 |
| 20260831160507 | 67 | 302 | 0.0 | 3.0 | 0.00 | 0.00 | 0.00 | 67 | 1024.0 |
| 20260831160015 | 67 | 295 | 1.0 | 5.0 | 0.00 | 0.00 | 0.00 | 68 | 1024.0 |
| 20260831155514 | 67 | 296 | 1.0 | 5.0 | 0.00 | 0.00 | 0.00 | 67 | 1024.0 |
| 20260831155010 | 68 | 304 | 2.0 | 6.0 | 0.00 | 0.00 | 0.00 | 67 | 1024.1 |
| 20260831154544 | 69 | 305 | 3.0 | 6.0 | 0.00 | 0.00 | 0.00 | 64 | 1024.0 |
| 20260831154011 | 69 | 46 | 1.0 | 5.0 | 0.00 | 0.00 | 0.00 | 66 | 1024.0 |
| 20260831153515 | 68 | 307 | 2.0 | 5.0 | 0.00 | 0.00 | 0.00 | 66 | 1024.1 |
| 20260831153026 | 68 | 297 | 1.0 | 5.0 | 0.00 | 0.00 | 0.00 | 67 | 1024.1 |
| 20260831152513 | 67 | 296 | 2.0 | 5.0 | 0.00 | 0.00 | 0.00 | 66 | 1024.1 |
| 20260831152014 | 67 | 335 | 2.0 | 5.0 | 0.00 | 0.00 | 0.00 | 67 | 1024.1 |
| 20260831151533 | 68 | 297 | 0.0 | 6.0 | 0.00 | 0.00 | 0.00 | 67 | 1024.1 |
| 20260831151016 | 67 | 281 | 1.0 | 6.0 | 0.00 | 0.00 | 0.00 | 66 | 1024.1 |
| 20260831150516 | 67 | 308 | 1.0 | 5.0 | 0.00 | 0.00 | 0.00 | 66 | 1024.1 |
| 20260831150035 | 67 | 321 | 3.0 | 5.0 | 0.00 | 0.00 | 0.00 | 66 | 1024.1 |
| 20260831145505 | 68 | 294 | 3.0 | 7.0 | 0.00 | 0.00 | 0.00 | 64 | 1024.1 |
| 20260831145008 | 67 | 300 | 2.0 | 7.0 | 0.00 | 0.00 | 0.00 | 65 | 1024.1 |
| 20260831144516 | 68 | 306 | 4.0 | 7.0 | 0.00 | 0.00 | 0.00 | 64 | 1024.1 |
| 20260831144008 | 69 | 309 | 3.0 | 4.0 | 0.00 | 0.00 | 0.00 | 64 | 1024.1 |
| 20260831143516 | 68 | 274 | 1.0 | 6.0 | 0.00 | 0.00 | 0.00 | 66 | 1024.1 |
| 20260831143020 | 68 | 300 | 3.0 | 7.0 | 0.00 | 0.00 | 0.00 | 63 | 1024.1 |
| 20260831142511 | 68 | 196 | 2.0 | 7.0 | 0.00 | 0.00 | 0.00 | 64 | 1024.1 |
| 20260831142012 | 69 | 249 | 0.0 | 5.0 | 0.00 | 0.00 | 0.00 | 64 | 1024.1 |
| 20260831141525 | 68 | 150 | 1.0 | 6.0 | 0.00 | 0.00 | 0.00 | 64 | 1024.1 |
| 20260831141015 | 68 | 303 | 2.0 | 8.0 | 0.00 | 0.00 | 0.00 | 64 | 1024.1 |
| 20260831140515 | 68 | 272 | 3.0 | 8.0 | 0.00 | 0.00 | 0.00 | 62 | 1024.2 |
| 20260831140032 | 67 | 295 | 2.0 | 6.0 | 0.00 | 0.00 | 0.00 | 66 | 1024.2 |
| 20260831135516 | 67 | 264 | 1.0 | 6.0 | 0.00 | 0.00 | 0.00 | 65 | 1024.2 |
| 20260831135016 | 67 | 281 | 3.0 | 6.0 | 0.00 | 0.00 | 0.00 | 64 | 1024.2 |
| 20260831134531 | 67 | 268 | 1.0 | 6.0 | 0.00 | 0.00 | 0.00 | 65 | 1024.2 |
| 20260831134017 | 68 | 293 | 3.0 | 6.0 | 0.00 | 0.00 | 0.00 | 63 | 1024.2 |
| 20260831133509 | 68 | 350 | 0.0 | 5.0 | 0.00 | 0.00 | 0.00 | 66 | 1024.3 |
| 20260831133025 | 68 | 271 | 1.0 | 4.0 | 0.00 | 0.00 | 0.00 | 63 | 1024.3 |
| 20260831132509 | 68 | 288 | 1.0 | 5.0 | 0.00 | 0.00 | 0.00 | 63 | 1024.3 |
| 20260831132015 | 67 | 266 | 1.0 | 5.0 | 0.00 | 0.00 | 0.00 | 67 | 1024.3 |
| 20260831131523 | 67 | 269 | 3.0 | 5.0 | 0.00 | 0.00 | 0.00 | 65 | 1024.4 |
| 20260831131007 | 67 | 285 | 1.0 | 5.0 | 0.00 | 0.00 | 0.00 | 66 | 1024.4 |
| 20260831130503 | 67 | 285 | 1.0 | 5.0 | 0.00 | 0.00 | 0.00 | 67 | 1024.5 |
| 20260831130004 | 67 | 274 | 2.0 | 5.0 | 0.00 | 0.00 | 0.00 | 67 | 1024.5 |
| 20260831125504 | 67 | 143 | 1.0 | 6.0 | 0.00 | 0.00 | 0.00 | 68 | 1024.5 |
| 20260831125004 | 66 | 290 | 2.0 | 6.0 | 0.00 | 0.00 | 0.00 | 68 | 1024.5 |
| 20260831124533 | 66 | 302 | 2.0 | 6.0 | 0.00 | 0.00 | 0.00 | 69 | 1024.5 |
| 20260831124006 | 67 | 238 | 1.0 | 4.0 | 0.00 | 0.00 | 0.00 | 69 | 1024.5 |
| 20260831123508 | 66 | 286 | 2.0 | 6.0 | 0.00 | 0.00 | 0.00 | 70 | 1024.6 |
| 20260831123013 | 65 | 292 | 2.0 | 6.0 | 0.00 | 0.00 | 0.00 | 70 | 1024.5 |
| 20260831122510 | 65 | 297 | 3.0 | 6.0 | 0.00 | 0.00 | 0.00 | 70 | 1024.5 |
| 20260831122008 | 65 | 290 | 2.0 | 6.0 | 0.00 | 0.00 | 0.00 | 69 | 1024.5 |
| 20260831121524 | 65 | 307 | 3.0 | 4.0 | 0.00 | 0.00 | 0.00 | 71 | 1024.5 |
| 20260831121016 | 65 | 238 | 2.0 | 4.0 | 0.00 | 0.00 | 0.00 | 69 | 1024.6 |
| 20260831120515 | 66 | 283 | 1.0 | 3.0 | 0.00 | 0.00 | 0.00 | 67 | 1024.5 |
| 20260831120008 | 67 | 244 | 1.0 | 3.0 | 0.00 | 0.00 | 0.00 | 69 | 1024.5 |
| 20260831115503 | 67 | 289 | 1.0 | 3.0 | 0.00 | 0.00 | 0.00 | 67 | 1024.5 |
| 20260831115003 | 67 | 6 | 1.0 | 3.0 | 0.00 | 0.00 | 0.00 | 71 | 1024.5 |
| 20260831114505 | 67 | 269 | 0.0 | 5.0 | 0.00 | 0.00 | 0.00 | 70 | 1024.5 |
| 20260831114004 | 66 | 290 | 2.0 | 5.0 | 0.00 | 0.00 | 0.00 | 68 | 1024.4 |
| 20260831113506 | 67 | 276 | 2.0 | 5.0 | 0.00 | 0.00 | 0.00 | 66 | 1024.4 |
| 20260831113011 | 68 | 242 | 2.0 | 5.0 | 0.00 | 0.00 | 0.00 | 67 | 1024.4 |
| 20260831112506 | 67 | 178 | 2.0 | 5.0 | 0.00 | 0.00 | 0.00 | 70 | 1024.3 |
| 20260831112009 | 65 | 303 | 1.0 | 5.0 | 0.00 | 0.00 | 0.00 | 72 | 1024.3 |
| 20260831111518 | 66 | 91 | 2.0 | 5.0 | 0.00 | 0.00 | 0.00 | 70 | 1024.4 |
| 20260831111010 | 66 | 278 | 2.0 | 4.0 | 0.00 | 0.00 | 0.00 | 70 | 1024.5 |
| 20260831110510 | 66 | 245 | 2.0 | 4.0 | 0.00 | 0.00 | 0.00 | 68 | 1024.4 |
| 20260831110021 | 66 | 120 | 1.0 | 5.0 | 0.00 | 0.00 | 0.00 | 71 | 1024.4 |
| 20260831105517 | 65 | 300 | 1.0 | 5.0 | 0.00 | 0.00 | 0.00 | 69 | 1024.4 |
| 20260831105014 | 66 | 108 | 0.0 | 3.0 | 0.00 | 0.00 | 0.00 | 72 | 1024.5 |
| 20260831104542 | 65 | 124 | 1.0 | 4.0 | 0.00 | 0.00 | 0.00 | 72 | 1024.5 |
| 20260831104004 | 65 | 179 | 1.0 | 4.0 | 0.00 | 0.00 | 0.00 | 73 | 1024.5 |
| 20260831103504 | 64 | 44 | 1.0 | 4.0 | 0.00 | 0.00 | 0.00 | 73 | 1024.6 |
| 20260831103007 | 63 | 273 | 1.0 | 4.0 | 0.00 | 0.00 | 0.00 | 75 | 1024.6 |
| 20260831102505 | 63 | 248 | 2.0 | 6.0 | 0.00 | 0.00 | 0.00 | 73 | 1024.6 |
| 20260831102006 | 64 | 275 | 2.0 | 6.0 | 0.00 | 0.00 | 0.00 | 72 | 1024.5 |
| 20260831101511 | 64 | 15 | 1.0 | 4.0 | 0.00 | 0.00 | 0.00 | 75 | 1024.5 |
| 20260831101009 | 65 | 277 | 1.0 | 3.0 | 0.00 | 0.00 | 0.00 | 70 | 1024.5 |
| 20260831100509 | 65 | 130 | 1.0 | 3.0 | 0.00 | 0.00 | 0.00 | 74 | 1024.5 |
| 20260831100018 | 64 | 179 | 1.0 | 4.0 | 0.00 | 0.00 | 0.00 | 74 | 1024.4 |
| 20260831095511 | 64 | 259 | 1.0 | 4.0 | 0.00 | 0.00 | 0.00 | 74 | 1024.4 |
| 20260831095012 | 63 | 212 | 1.0 | 4.0 | 0.00 | 0.00 | 0.00 | 76 | 1024.4 |
| 20260831094526 | 63 | 249 | 0.0 | 4.0 | 0.00 | 0.00 | 0.00 | 77 | 1024.4 |
| 20260831094014 | 63 | 255 | 1.0 | 2.0 | 0.00 | 0.00 | 0.00 | 76 | 1024.5 |
| 20260831093519 | 63 | 225 | 0.0 | 2.0 | 0.00 | 0.00 | 0.00 | 74 | 1024.4 |
| 20260831093035 | 63 | 115 | 1.0 | 2.0 | 0.00 | 0.00 | 0.00 | 74 | 1024.4 |
| 20260831092516 | 63 | 279 | 1.0 | 2.0 | 0.00 | 0.00 | 0.00 | 75 | 1024.4 |
| 20260831092009 | 63 | 344 | 0.0 | 2.0 | 0.00 | 0.00 | 0.00 | 76 | 1024.4 |
| 20260831091508 | 63 | 105 | 0.0 | 3.0 | 0.00 | 0.00 | 0.00 | 76 | 1024.3 |
| 20260831091010 | 63 | 83 | 0.0 | 4.0 | 0.00 | 0.00 | 0.00 | 76 | 1024.3 |
| 20260831090506 | 63 | 208 | 1.0 | 4.0 | 0.00 | 0.00 | 0.00 | 75 | 1024.4 |
| 20260831090012 | 64 | 236 | 0.0 | 2.0 | 0.00 | 0.00 | 0.00 | 74 | 1024.2 |
| 20260831085508 | 63 | 119 | 1.0 | 3.0 | 0.00 | 0.00 | 0.00 | 75 | 1024.2 |
| 20260831085010 | 63 | 105 | 1.0 | 3.0 | 0.00 | 0.00 | 0.00 | 76 | 1024.1 |
| 20260831084518 | 62 | 329 | 0.0 | 4.0 | 0.00 | 0.00 | 0.00 | 77 | 1024.1 |
| 20260831084011 | 62 | 53 | 1.0 | 4.0 | 0.00 | 0.00 | 0.00 | 77 | 1024.0 |
| 20260831083512 | 61 | 120 | 0.0 | 3.0 | 0.00 | 0.00 | 0.00 | 78 | 1024.0 |
| 20260831083040 | 62 | 335 | 0.0 | 2.0 | 0.00 | 0.00 | 0.00 | 76 | 1024.0 |
| 20260831082515 | 62 | 179 | 0.0 | 3.0 | 0.00 | 0.00 | 0.00 | 76 | 1024.0 |
| 20260831082016 | 62 | 161 | 1.0 | 3.0 | 0.00 | 0.00 | 0.00 | 74 | 1023.9 |
| 20260831081532 | 63 | 160 | 1.0 | 2.0 | 0.00 | 0.00 | 0.00 | 75 | 1023.9 |
| 20260831081019 | 63 | 113 | 0.0 | 3.0 | 0.00 | 0.00 | 0.00 | 77 | 1023.8 |
| 20260831080504 | 62 | 103 | 1.0 | 3.0 | 0.00 | 0.00 | 0.00 | 77 | 1023.7 |
| 20260831080014 | 62 | 143 | 0.0 | 3.0 | 0.00 | 0.00 | 0.00 | 78 | 1023.7 |
| 20260831075507 | 62 | 120 | 1.0 | 4.0 | 0.00 | 0.00 | 0.00 | 77 | 1023.7 |
| 20260831075008 | 61 | 136 | 1.0 | 4.0 | 0.00 | 0.00 | 0.00 | 77 | 1023.6 |
| 20260831074518 | 61 | 182 | 1.0 | 3.0 | 0.00 | 0.00 | 0.00 | 78 | 1023.6 |
| 20260831074013 | 61 | 136 | 1.0 | 4.0 | 0.00 | 0.00 | 0.00 | 80 | 1023.6 |
| 20260831073511 | 61 | 155 | 0.0 | 4.0 | 0.00 | 0.00 | 0.00 | 81 | 1023.6 |
| 20260831073020 | 60 | 120 | 1.0 | 3.0 | 0.00 | 0.00 | 0.00 | 81 | 1023.6 |
| 20260831072511 | 60 | 127 | 1.0 | 3.0 | 0.00 | 0.00 | 0.00 | 81 | 1023.6 |
| 20260831072014 | 60 | 139 | 1.0 | 3.0 | 0.00 | 0.00 | 0.00 | 81 | 1023.6 |
| 20260831071530 | 61 | 152 | 1.0 | 2.0 | 0.00 | 0.00 | 0.00 | 83 | 1023.5 |
| 20260831071016 | 60 | 148 | 0.0 | 2.0 | 0.00 | 0.00 | 0.00 | 84 | 1023.5 |
| 20260831070514 | 60 | 158 | 0.0 | 1.0 | 0.00 | 0.00 | 0.00 | 85 | 1023.5 |
| 20260831070036 | 59 | 160 | 0.0 | 1.0 | 0.00 | 0.00 | 0.00 | 86 | 1023.5 |
| 20260831065519 | 59 | 155 | 0.0 | 1.0 | 0.00 | 0.00 | 0.00 | 88 | 1023.5 |
| 20260831065019 | 58 | 156 | 0.0 | 1.0 | 0.00 | 0.00 | 0.00 | 90 | 1023.5 |
| 20260831064512 | 58 | 168 | 0.0 | 1.0 | 0.00 | 0.00 | 0.00 | 90 | 1023.4 |
| 20260831064009 | 57 | 164 | 0.0 | 1.0 | 0.00 | 0.00 | 0.00 | 90 | 1023.4 |
| 20260831063508 | 57 | 259 | 0.0 | 1.0 | 0.00 | 0.00 | 0.00 | 91 | 1023.4 |
| 20260831063019 | 56 | 169 | 0.0 | 1.0 | 0.00 | 0.00 | 0.00 | 93 | 1023.4 |
| 20260831062510 | 56 | 160 | 0.0 | 1.0 | 0.00 | 0.00 | 0.00 | 93 | 1023.2 |
| 20260831062014 | 56 | 162 | 0.0 | 1.0 | 0.00 | 0.00 | 0.00 | 93 | 1023.2 |
| 20260831061523 | 56 | 188 | 0.0 | 1.0 | 0.00 | 0.00 | 0.00 | 93 | 1023.2 |
| 20260831061012 | 56 | 178 | 0.0 | 0.0 | 0.00 | 0.00 | 0.00 | 94 | 1023.2 |
| 20260831060518 | 55 | 156 | 0.0 | 0.0 | 0.00 | 0.00 | 0.00 | 95 | 1023.2 |
| 20260831060027 | 55 | 157 | 0.0 | 0.0 | 0.00 | 0.00 | 0.00 | 94 | 1023.1 |
| 20260831055517 | 54 | 158 | 0.0 | 0.0 | 0.00 | 0.00 | 0.00 | 94 | 1023.1 |
| 20260831055021 | 54 | 162 | 0.0 | 0.0 | 0.00 | 0.00 | 0.00 | 94 | 1023.1 |
| 20260831054533 | 54 | 166 | 0.0 | 1.0 | 0.00 | 0.00 | 0.00 | 95 | 1023.0 |
| 20260831054018 | 54 | 159 | 0.0 | 1.0 | 0.00 | 0.00 | 0.00 | 94 | 1023.0 |
| 20260831053521 | 53 | 166 | 0.0 | 0.0 | 0.00 | 0.00 | 0.00 | 94 | 1023.0 |
| 20260831053036 | 53 | 166 | 0.0 | 0.0 | 0.00 | 0.00 | 0.00 | 94 | 1022.9 |
| 20260831052511 | 53 | 166 | 0.0 | 0.0 | 0.00 | 0.00 | 0.00 | 94 | 1022.9 |
| 20260831052011 | 54 | 166 | 0.0 | 0.0 | 0.00 | 0.00 | 0.00 | 94 | 1022.9 |
| 20260831051522 | 54 | 166 | 0.0 | 1.0 | 0.00 | 0.00 | 0.00 | 94 | 1022.9 |
| 20260831051014 | 54 | 166 | 0.0 | 1.0 | 0.00 | 0.00 | 0.00 | 94 | 1022.9 |
| 20260831050511 | 54 | 167 | 0.0 | 0.0 | 0.00 | 0.00 | 0.00 | 94 | 1022.9 |
| 20260831050042 | 54 | 167 | 0.0 | 0.0 | 0.00 | 0.00 | 0.00 | 94 | 1022.8 |
| 20260831045515 | 54 | 175 | 0.0 | 0.0 | 0.00 | 0.00 | 0.00 | 94 | 1022.7 |
| 20260831045015 | 54 | 177 | 0.0 | 0.0 | 0.00 | 0.00 | 0.00 | 94 | 1022.7 |
| 20260831044531 | 54 | 169 | 0.0 | 1.0 | 0.00 | 0.00 | 0.00 | 94 | 1022.6 |
| 20260831044015 | 54 | 169 | 0.0 | 1.0 | 0.00 | 0.00 | 0.00 | 94 | 1022.7 |
| 20260831043519 | 54 | 208 | 0.0 | 1.0 | 0.00 | 0.00 | 0.00 | 94 | 1022.6 |
| 20260831043029 | 54 | 240 | 0.0 | 1.0 | 0.00 | 0.00 | 0.00 | 94 | 1022.6 |
| 20260831042518 | 54 | 228 | 0.0 | 1.0 | 0.00 | 0.00 | 0.00 | 95 | 1022.6 |
| 20260831042016 | 53 | 271 | 0.0 | 1.0 | 0.00 | 0.00 | 0.00 | 94 | 1022.6 |
| 20260831041531 | 53 | 263 | 0.0 | 1.0 | 0.00 | 0.00 | 0.00 | 94 | 1022.6 |
| 20260831041020 | 53 | 265 | 0.0 | 1.0 | 0.00 | 0.00 | 0.00 | 94 | 1022.6 |
| 20260831040511 | 53 | 265 | 0.0 | 1.0 | 0.00 | 0.00 | 0.00 | 93 | 1022.6 |
| 20260831040026 | 53 | 265 | 0.0 | 0.0 | 0.00 | 0.00 | 0.00 | 93 | 1022.6 |
| 20260831035513 | 53 | 265 | 0.0 | 1.0 | 0.00 | 0.00 | 0.00 | 93 | 1022.6 |
| 20260831035014 | 53 | 266 | 0.0 | 1.0 | 0.00 | 0.00 | 0.00 | 93 | 1022.7 |
| 20260831034529 | 53 | 266 | 0.0 | 1.0 | 0.00 | 0.00 | 0.00 | 93 | 1022.6 |
| 20260831034016 | 53 | 266 | 0.0 | 1.0 | 0.00 | 0.00 | 0.00 | 93 | 1022.6 |
| 20260831033514 | 54 | 266 | 0.0 | 0.0 | 0.00 | 0.00 | 0.00 | 93 | 1022.7 |
| 20260831033032 | 54 | 266 | 0.0 | 1.0 | 0.00 | 0.00 | 0.00 | 93 | 1022.7 |
| 20260831032520 | 54 | 266 | 0.0 | 1.0 | 0.00 | 0.00 | 0.00 | 93 | 1022.6 |
| 20260831032018 | 54 | 266 | 0.0 | 1.0 | 0.00 | 0.00 | 0.00 | 93 | 1022.7 |
| 20260831031532 | 54 | 271 | 0.0 | 1.0 | 0.00 | 0.00 | 0.00 | 93 | 1022.7 |
| 20260831031017 | 54 | 283 | 0.0 | 1.0 | 0.00 | 0.00 | 0.00 | 93 | 1022.7 |
| 20260831030515 | 54 | 278 | 0.0 | 2.0 | 0.00 | 0.00 | 0.00 | 93 | 1022.7 |
| 20260831030017 | 54 | 276 | 1.0 | 2.0 | 0.00 | 0.00 | 0.00 | 93 | 1022.7 |
| 20260831025510 | 54 | 273 | 1.0 | 2.0 | 0.00 | 0.00 | 0.00 | 92 | 1022.7 |
| 20260831025012 | 55 | 271 | 1.0 | 2.0 | 0.00 | 0.00 | 0.00 | 92 | 1022.7 |
| 20260831024524 | 55 | 285 | 1.0 | 3.0 | 0.00 | 0.00 | 0.00 | 92 | 1022.7 |
| 20260831024014 | 55 | 293 | 0.0 | 3.0 | 0.00 | 0.00 | 0.00 | 92 | 1022.7 |
| 20260831023513 | 55 | 290 | 1.0 | 3.0 | 0.00 | 0.00 | 0.00 | 92 | 1022.7 |
| 20260831023028 | 55 | 275 | 1.0 | 4.0 | 0.00 | 0.00 | 0.00 | 93 | 1022.7 |
| 20260831022502 | 55 | 302 | 1.0 | 4.0 | 0.00 | 0.00 | 0.00 | 93 | 1022.6 |
| 20260831022003 | 55 | 261 | 0.0 | 2.0 | 0.00 | 0.00 | 0.00 | 92 | 1022.6 |
| 20260831021509 | 55 | 233 | 0.0 | 3.0 | 0.00 | 0.00 | 0.00 | 92 | 1022.6 |
| 20260831021007 | 55 | 266 | 1.0 | 3.0 | 0.00 | 0.00 | 0.00 | 92 | 1022.6 |
| 20260831020502 | 55 | 284 | 1.0 | 2.0 | 0.00 | 0.00 | 0.00 | 92 | 1022.5 |
| 20260831020014 | 55 | 271 | 0.0 | 2.0 | 0.00 | 0.00 | 0.00 | 91 | 1022.6 |
| 20260831015509 | 55 | 255 | 0.0 | 1.0 | 0.00 | 0.00 | 0.00 | 91 | 1022.6 |
| 20260831015013 | 55 | 273 | 0.0 | 1.0 | 0.00 | 0.00 | 0.00 | 90 | 1022.6 |
| 20260831014516 | 55 | 267 | 0.0 | 2.0 | 0.00 | 0.00 | 0.00 | 90 | 1022.5 |
| 20260831014011 | 55 | 278 | 0.0 | 2.0 | 0.00 | 0.00 | 0.00 | 90 | 1022.5 |
| 20260831013516 | 56 | 296 | 1.0 | 2.0 | 0.00 | 0.00 | 0.00 | 90 | 1022.5 |
| 20260831013024 | 56 | 248 | 0.0 | 3.0 | 0.00 | 0.00 | 0.00 | 89 | 1022.5 |
| 20260831012515 | 56 | 276 | 1.0 | 3.0 | 0.00 | 0.00 | 0.00 | 89 | 1022.5 |
| 20260831012017 | 56 | 274 | 1.0 | 3.0 | 0.00 | 0.00 | 0.00 | 88 | 1022.4 |
| 20260831011531 | 56 | 255 | 1.0 | 3.0 | 0.00 | 0.00 | 0.00 | 88 | 1022.4 |
| 20260831011016 | 56 | 267 | 1.0 | 3.0 | 0.00 | 0.00 | 0.00 | 87 | 1022.4 |
| 20260831010503 | 57 | 282 | 1.0 | 3.0 | 0.00 | 0.00 | 0.00 | 87 | 1022.4 |
| 20260831010026 | 57 | 274 | 1.0 | 3.0 | 0.00 | 0.00 | 0.00 | 87 | 1022.3 |
| 20260831005507 | 57 | 283 | 1.0 | 2.0 | 0.00 | 0.00 | 0.00 | 86 | 1022.2 |
| 20260831005019 | 57 | 269 | 0.0 | 2.0 | 0.00 | 0.00 | 0.00 | 85 | 1022.2 |
| 20260831004516 | 57 | 276 | 0.0 | 1.0 | 0.00 | 0.00 | 0.00 | 84 | 1022.2 |
| 20260831004007 | 58 | 270 | 1.0 | 2.0 | 0.00 | 0.00 | 0.00 | 84 | 1022.2 |
| 20260831003512 | 58 | 289 | 1.0 | 2.0 | 0.00 | 0.00 | 0.00 | 84 | 1022.1 |
| 20260831003020 | 58 | 274 | 1.0 | 2.0 | 0.00 | 0.00 | 0.00 | 84 | 1022.1 |
| 20260831002514 | 58 | 285 | 0.0 | 2.0 | 0.00 | 0.00 | 0.00 | 84 | 1022.0 |
| 20260831002012 | 59 | 262 | 0.0 | 1.0 | 0.00 | 0.00 | 0.00 | 83 | 1022.0 |
| 20260831001534 | 59 | 233 | 0.0 | 1.0 | 0.00 | 0.00 | 0.00 | 83 | 1022.0 |
| 20260831001015 | 59 | 271 | 0.0 | 1.0 | 0.00 | 0.00 | 0.00 | 83 | 1022.0 |
| 20260831000515 | 59 | 292 | 0.0 | 1.0 | 0.00 | 0.00 | 0.00 | 83 | 1022.0 |
| 20260831000029 | 59 | 143 | 0.0 | 1.0 | 0.00 | 0.00 | 0.00 | 83 | 1022.0 |
| 20260830235519 | 59 | 152 | 0.0 | 1.0 | 0.00 | 0.00 | 0.00 | 83 | 1021.9 |
| 20260830235006 | 59 | 141 | 0.0 | 1.0 | 0.00 | 0.00 | 0.00 | 83 | 1022.0 |
| 20260830234519 | 60 | 141 | 0.0 | 1.0 | 0.00 | 0.00 | 0.00 | 84 | 1022.0 |
| 20260830234008 | 60 | 144 | 0.0 | 1.0 | 0.00 | 0.00 | 0.00 | 84 | 1022.1 |
| 20260830233508 | 60 | 147 | 0.0 | 1.0 | 0.00 | 0.00 | 0.00 | 84 | 1022.1 |
| 20260830233016 | 60 | 147 | 0.0 | 1.0 | 0.00 | 0.00 | 0.00 | 84 | 1022.0 |
| 20260830232515 | 60 | 140 | 0.0 | 1.0 | 0.00 | 0.00 | 0.00 | 84 | 1022.0 |
| 20260830232012 | 60 | 147 | 0.0 | 1.0 | 0.00 | 0.00 | 0.00 | 84 | 1022.0 |
| 20260830231523 | 59 | 150 | 0.0 | 1.0 | 0.00 | 0.00 | 0.00 | 84 | 1022.0 |
| 20260830231013 | 59 | 276 | 0.0 | 1.0 | 0.00 | 0.00 | 0.00 | 84 | 1022.0 |
| 20260830230515 | 59 | 256 | 0.0 | 1.0 | 0.00 | 0.00 | 0.00 | 84 | 1022.0 |
| 20260830230034 | 59 | 262 | 0.0 | 1.0 | 0.00 | 0.00 | 0.00 | 84 | 1022.0 |